Regional Weather Roundup
Issued by NWS

Home | Current Version | Previous Version | Graphics & Text | Print | Product List | Glossary Off
Versions: 1 2 3 4 5 6 7 8 9 10 11 12 13 14 15 16 17 18 19 20 21 22 23 24 25 26 27 28 29 30 31 32 33 34 35 36 37 38 39 40 41 42 43 44 45 46 47 48 49 50

000
ASUS43 KMKX 171600
RWRWI

WISCONSIN REGIONAL WEATHER ROUNDUP
NATIONAL WEATHER SERVICE MILWAUKEE/SULLIVAN WI
1100 AM CDT THU AUG 17 2017

NOTE: "FAIR" INDICATES FEW OR NO CLOUDS BELOW 12,000 FEET WITH NO
SIGNIFICANT WEATHER AND/OR OBSTRUCTIONS TO VISIBILITY.

WIZ001-002-006>008-014>016-023>028-171700-
NORTHWEST WISCONSIN

CITY           SKY/WX    TMP DP  RH WIND       PRES   REMARKS
SUPERIOR ARPT  DRIZZLE   61  61 100 NE13G25   29.62S
ASHLAND        LGT RAIN  64  63  96 NE12      29.58S
HAYWARD        HVY RAIN  64  62  93 N6        29.58S FOG
SIREN          RAIN      64  63  97 N10G16    29.60R
CUMBERLAND     CLOUDY    64  63  94 N6        29.58R
RICE LAKE      CLOUDY    66  65  97 N3        29.58R
CHETEK         DRIZZLE   67  66  99 N6        29.55S
LADYSMITH      LGT RAIN  67  66  97 E3        29.58S
EAU CLAIRE     LGT RAIN  67  66  97 S9        29.50R FOG
MENOMONIE      HVY RAIN  68  67  99 NW8       29.52R
NEW RICHMOND   PTSUNNY   72  64  76 N9        29.58R
OSCEOLA        LGT RAIN  67  66  96 NW14      29.61R
$$

WIZ003>005-009-010-017-018-171700-
NORTH CENTRAL WISCONSIN

CITY           SKY/WX    TMP DP  RH WIND       PRES   REMARKS
MANITOWISH WTR HVY RAIN  67  67 100 SE3       29.60S
ARBOR VITAE    CLOUDY    69  67  93 S7        29.60S
WOODRUFF       CLOUDY    69  67  93 S7        29.60S
RHINELANDER    CLOUDY    69  67  93 S10       29.61F
EAGLE RIVER    CLOUDY    71  69  95 SE5       29.60F
LAND O LAKES   CLOUDY    72  69  90 SE7       29.62F
PHILLIPS       CLOUDY    67  65  94 S6        29.58S
TOMAHAWK       LGT RAIN  66  64  94 CALM      29.60F
MEDFORD        CLOUDY    67  64  91 S14G20    29.58F FOG
MERRILL        CLOUDY    72  64  78 SW9       29.61F
$$

WIZ029-030-035-036-043>047-171700-
CENTRAL WISCONSIN

CITY           SKY/WX    TMP DP  RH WIND       PRES   REMARKS
WAUSAU         CLOUDY    69  63  81 S10       29.60F
MOSINEE        CLOUDY    70  64  83 S15       29.62F
MARSHFIELD     LGT RAIN  67  64  90 S14G21    29.58F FOG
STEVENS POINT  CLOUDY    68  65  90 S12       29.64S
WAUPACA        CLOUDY    74  66  77 S14       29.65R
WAUTOMA        CLOUDY    72  65  78 S17G26    29.65F
WISC RAPIDS    LGT RAIN  70  65  84 S12G25    29.63F
CAMP DOUGLAS   LGT RAIN  72  64  78 SW8G18    29.61F
$$

WIZ011>013-019>022-031-037>040-048>050-171700-
NORTHEAST WISCONSIN

CITY           SKY/WX    TMP DP  RH WIND       PRES   REMARKS
ANTIGO         CLOUDY    69  66  92 S12       29.64S
SHAWANO        CLOUDY    80  67  65 SW12G21   29.62S HX  82
OCONTO         MOSUNNY   76  71  83 SE14      29.63F
STURGEON BAY   CLOUDY    73  71  93 S16       29.65F
GREEN BAY      PTSUNNY   78  70  76 S14G23    29.63F HX  80
MANITOWOC      CLOUDY    75  72  88 S9        29.67F
APPLETON       PTSUNNY   75  64  69 SW14      29.64F
CLINTONVILLE   CLOUDY    75  64  69 SW13G21   29.63S
OSHKOSH        PTSUNNY   75  65  70 SW12      29.65F
$$

WIZ032>034-041-042-053>061-171700-
SOUTHWEST WISCONSIN

CITY           SKY/WX    TMP DP  RH WIND       PRES   REMARKS
LA CROSSE      LGT RAIN  71  66  84 SW13G23   29.60R
SPARTA         CLOUDY    69  63  81 SW10G18   29.61S
VIROQUA        CLOUDY    67  66  94 SW20G25   29.66R
BOSCOBEL       CLOUDY    75  64  68 SW15G22   29.67S
PRAIRIE DU CHI PTSUNNY   74  62  65 W14       29.67F
PLATTEVILLE    CLOUDY    70  69  96 SW12G18   29.73S
$$

WIZ056-057-062-063-064-067-068-171700-
SOUTH CENTRAL WISCONSIN

CITY           SKY/WX    TMP DP  RH WIND       PRES   REMARKS
REEDSBURG      CLOUDY    70  66  88 SW15      29.66F
BARABOO/DELLS  CLOUDY    70  64  81 SW12      29.67S
LONE ROCK      CLOUDY    73  66  78 SW12G22   29.67F
MINERAL POINT  CLOUDY    70  70 100 SW10G18   29.72S FOG
MADISON        PTSUNNY   73  64  73 SW8G18    29.69S
MIDDLETON      CLOUDY    74  65  73 SW16G24   29.70S
WATERTOWN      PTSUNNY   76  70  81 S15G21    29.69F
MONROE         CLOUDY    72  63  73 SW18G31   29.73S
JANESVILLE     PTSUNNY   77  68  73 SW12      29.70F
$$

WIZ051-052-058>065-066-070>072-171700-
SOUTHEAST WISCONSIN

CITY           SKY/WX    TMP DP  RH WIND       PRES   REMARKS
MILWAUKEE      LGT RAIN  77  71  82 SW13      29.71F
WAUKESHA       NOT AVBL
MILWAUKEE/TIMM CLOUDY    75  66  73 SW12G21   29.72F
RACINE         RAIN      75  72  90 SW8       29.74S FOG
KENOSHA        CLOUDY    76  70  82 SW12      29.73F
FOND DU LAC    LGT RAIN  75  66  73 S15G26    29.66F
SHEBOYGAN      PTSUNNY   77  71  82 SW14      29.68F
WEST BEND      CLOUDY    73  68  83 S15G24    29.70S
JUNEAU         CLOUDY    75  67  76 S16G22    29.70S
$$

LSZ147-162-171700-
LAKE SUPERIOR

STATION/POSITION TIME  TEMP    WIND        PRES    WAVE
                       AIR SEA DIR/SP/G            HT/PER
                 (UTC) (F)     (DEG/KT/KT) (MB)    (FT/S)
W MID LAKE BUOY  1450   61 60   40/ 14/ 17 1002.6F   4/ 5
DEVILS ISLAND    1500   60      50/ 22/ 25 1002.4F
SAXON HARBOR     1540   65      40/  6/  7 1001.4S
$$

LMZ867-665-643>646-171700-
LAKE MICHIGAN

STATION/POSITION TIME  TEMP    WIND        PRES    WAVE
                       AIR SEA DIR/SP/G            HT/PER
                 (UTC) (F)     (DEG/KT/KT) (MB)    (FT/S)
S GREEN BAY BUOY 1530   73 72  150/ 14/ 16 1003.8F
N MID LAKE BUOY  1450   68 67  160/ 19/ 21 1004.8F   4/ 5
NORTHPORT PIER   1540   70     160/ 10/ 19 1004.7S
KEWAUNEE LAKESHO 1530   71     180/ 14/ 16 1004.3F
SHEBOYGAN LAKESH 1500   72     180/ 19/ 21 1004.8F
PORT WASHINGTON  1530   79     210/  8/ 13 1006.4S
ATWATER BUOY     1439   74 71  210/ 10/ 14 1006.6S
MILWAUKEE LAKESH 1530   75     210/ 14/ 17   N/A
S MID LAKE BUOY  1450   72 72  190/ 17/ 21 1006.6F   4/ 5
KENOSHA   LAKESH 1500   75     200/ 13/ 16 1006.4
$$

TC  - TEMPERATURE IN CELSIUS
VSB - VISIBILITY IN STATUTE MILES
WCI - WIND CHILL INDEX
HX  - HEAT INDEX





USA.gov is the U.S. government's official web portal to all federal, state and local government web resources and services.